[Date Prev][Date Next][Thread Prev][Thread Next] - [Date Index][Thread Index][Author Index]
2 Line ISS Keps 5-6
- Subject: [sarex] 2 Line ISS Keps 5-6
- From: "Dave Larsen PhD" <doc@xxxxxxxxxxx>
- Date: Fri, 5 May 2006 19:48:42 -0700
ISS
1 25544U 98067A 06125.98854167 .00013819 00000-0 94826-4 0 8761
2 25544 051.6387 044.6949 0009755 165.1209 206.7531 15.74996161426519
----
Via the sarex mailing list at AMSAT.ORG courtesy of AMSAT-NA.
To unsubscribe, send "unsubscribe sarex" to Majordomo@amsat.org
AMSAT Home